Year,Month,Day,Hour,Minute,Value (Times are PST for temperature in C)
2014,06,17,00,00,13.70
2014,06,17,00,01,13.70
2014,06,17,00,02,13.70
2014,06,17,00,03,13.60
2014,06,17,00,04,13.60
2014,06,17,00,05,13.50
2014,06,17,00,06,13.40
2014,06,17,00,07,13.30
2014,06,17,00,08,13.30
2014,06,17,00,09,13.30
2014,06,17,00,11,13.30
2014,06,17,00,12,13.20
2014,06,17,00,13,13.20
2014,06,17,00,14,13.20
2014,06,17,00,15,13.10
2014,06,17,00,16,13.10
2014,06,17,00,17,13.10
2014,06,17,00,18,13.00
2014,06,17,00,19,13.00
2014,06,17,00,20,12.90
2014,06,17,00,21,12.90
2014,06,17,00,22,12.80
2014,06,17,00,23,12.80
2014,06,17,00,24,12.80
2014,06,17,00,25,12.70
2014,06,17,00,26,12.60
2014,06,17,00,27,12.60
2014,06,17,00,28,12.60
2014,06,17,00,29,12.50
2014,06,17,00,30,12.50
2014,06,17,00,31,12.40
2014,06,17,00,32,12.40
2014,06,17,00,33,12.40
2014,06,17,00,34,12.40
2014,06,17,00,35,12.30
2014,06,17,00,36,12.30
2014,06,17,00,37,12.40
2014,06,17,00,38,12.40
2014,06,17,00,39,12.40
2014,06,17,00,40,12.40
2014,06,17,00,41,12.30
2014,06,17,00,42,12.30
2014,06,17,00,43,12.30
2014,06,17,00,44,12.30
2014,06,17,00,45,12.30
2014,06,17,00,46,12.20
2014,06,17,00,47,12.20
2014,06,17,00,48,12.20
2014,06,17,00,49,12.20
2014,06,17,00,50,12.20
2014,06,17,00,51,12.10
2014,06,17,00,52,12.10
2014,06,17,00,53,12.10
2014,06,17,00,54,12.10
2014,06,17,00,55,12.10
2014,06,17,00,56,12.10
2014,06,17,00,57,12.20
2014,06,17,00,58,12.20
2014,06,17,00,59,12.20
2014,06,17,01,00,12.10
2014,06,17,01,01,12.10
2014,06,17,01,02,12.10
2014,06,17,01,03,12.10
2014,06,17,01,04,12.10
2014,06,17,01,05,12.10
2014,06,17,01,06,12.20
2014,06,17,01,07,12.20
2014,06,17,01,08,12.30
2014,06,17,01,09,12.30
2014,06,17,01,10,12.30
2014,06,17,01,11,12.20
2014,06,17,01,12,12.20
2014,06,17,01,13,12.20
2014,06,17,01,14,12.20
2014,06,17,01,15,12.10
2014,06,17,01,16,12.00
2014,06,17,01,17,12.00
2014,06,17,01,18,12.00
2014,06,17,01,19,12.00
2014,06,17,01,20,12.00
2014,06,17,01,21,12.10
2014,06,17,01,22,12.20
2014,06,17,01,23,12.20
2014,06,17,01,24,12.20
2014,06,17,01,25,12.20
2014,06,17,01,26,12.20
2014,06,17,01,27,12.20
2014,06,17,01,28,12.10
2014,06,17,01,29,12.00
2014,06,17,01,30,12.00
2014,06,17,01,31,11.90
2014,06,17,01,32,11.90
2014,06,17,01,33,11.90
2014,06,17,01,34,11.90
2014,06,17,01,35,11.90
2014,06,17,01,36,11.80
2014,06,17,01,37,11.80
2014,06,17,01,38,11.80
2014,06,17,01,39,11.80
2014,06,17,01,40,11.80
2014,06,17,01,41,11.80
2014,06,17,01,42,11.80
2014,06,17,01,43,11.80
2014,06,17,01,44,11.80
2014,06,17,01,45,11.80
2014,06,17,01,46,11.90
2014,06,17,01,47,11.90
2014,06,17,01,48,11.80
2014,06,17,01,49,11.80
2014,06,17,01,50,11.80
2014,06,17,01,51,11.80
2014,06,17,01,52,11.80
2014,06,17,01,53,11.80
2014,06,17,01,54,11.80
2014,06,17,01,55,11.80
2014,06,17,01,56,11.80
2014,06,17,01,57,11.80
2014,06,17,01,58,11.80
2014,06,17,01,59,11.80
2014,06,17,02,00,11.80
2014,06,17,02,01,11.80
2014,06,17,02,02,11.80
2014,06,17,02,03,11.80
2014,06,17,02,04,11.80
2014,06,17,02,05,11.80
2014,06,17,02,06,11.80
2014,06,17,02,07,11.80
2014,06,17,02,08,11.80
2014,06,17,02,09,11.90
2014,06,17,02,10,11.90
2014,06,17,02,11,11.90
2014,06,17,02,12,11.90
2014,06,17,02,13,11.90
2014,06,17,02,14,11.90
2014,06,17,02,15,11.90
2014,06,17,02,16,11.90
2014,06,17,02,17,11.90
2014,06,17,02,18,11.90
2014,06,17,02,19,11.90
2014,06,17,02,20,11.90
2014,06,17,02,21,11.80
2014,06,17,02,22,11.80
2014,06,17,02,23,11.80
2014,06,17,02,24,11.80
2014,06,17,02,25,11.80
2014,06,17,02,26,11.80
2014,06,17,02,27,11.80
2014,06,17,02,28,11.80
2014,06,17,02,29,11.80
2014,06,17,02,30,11.80
2014,06,17,02,31,11.80
2014,06,17,02,32,11.80
2014,06,17,02,33,11.80
2014,06,17,02,34,11.80
2014,06,17,02,35,11.80
2014,06,17,02,36,11.80
2014,06,17,02,37,11.70
2014,06,17,02,38,11.70
2014,06,17,02,39,11.70
2014,06,17,02,40,11.70
2014,06,17,02,41,11.70
2014,06,17,02,42,11.60
2014,06,17,02,43,11.60
2014,06,17,02,44,11.60
2014,06,17,02,45,11.60
2014,06,17,02,46,11.60
2014,06,17,02,47,11.60
2014,06,17,02,48,11.60
2014,06,17,02,49,11.40
2014,06,17,02,50,11.40
2014,06,17,02,51,11.40
2014,06,17,02,52,11.40
2014,06,17,02,53,11.40
2014,06,17,02,54,11.30
2014,06,17,02,55,11.30
2014,06,17,02,56,11.30
2014,06,17,02,57,11.30
2014,06,17,02,58,11.20
2014,06,17,02,59,11.20
2014,06,17,03,00,11.20
2014,06,17,03,01,11.20
2014,06,17,03,02,11.10
2014,06,17,03,03,11.10
2014,06,17,03,04,11.10
2014,06,17,03,05,11.10
2014,06,17,03,06,11.10
2014,06,17,03,07,11.10
2014,06,17,03,08,11.10
2014,06,17,03,09,11.10
2014,06,17,03,10,11.10
2014,06,17,03,11,11.10
2014,06,17,03,12,11.10
2014,06,17,03,13,11.10
2014,06,17,03,14,11.10
2014,06,17,03,15,11.20
2014,06,17,03,16,11.20
2014,06,17,03,17,11.30
2014,06,17,03,18,11.40
2014,06,17,03,19,11.40
2014,06,17,03,20,11.40
2014,06,17,03,21,11.40
2014,06,17,03,22,11.40
2014,06,17,03,23,11.40
2014,06,17,03,24,11.40
2014,06,17,03,25,11.40
2014,06,17,03,26,11.40
2014,06,17,03,27,11.40
2014,06,17,03,28,11.40
2014,06,17,03,29,11.40
2014,06,17,03,30,11.40
2014,06,17,03,31,11.40
2014,06,17,03,32,11.40
2014,06,17,03,33,11.40
2014,06,17,03,34,11.40
2014,06,17,03,35,11.40
2014,06,17,03,36,11.30
2014,06,17,03,37,11.30
2014,06,17,03,38,11.30
2014,06,17,03,39,11.30
2014,06,17,03,40,11.20
2014,06,17,03,41,11.20
2014,06,17,03,42,11.20
2014,06,17,03,43,11.20
2014,06,17,03,44,11.10
2014,06,17,03,45,11.10
2014,06,17,03,46,11.10
2014,06,17,03,47,11.10
2014,06,17,03,48,11.10
2014,06,17,03,49,11.10
2014,06,17,03,50,11.10
2014,06,17,03,51,10.90
2014,06,17,03,52,10.90
2014,06,17,03,53,10.90
2014,06,17,03,54,10.90
2014,06,17,03,55,10.90
2014,06,17,03,56,10.90
2014,06,17,03,57,10.90
2014,06,17,03,58,10.90
2014,06,17,03,59,10.90
2014,06,17,04,00,10.90
2014,06,17,04,01,10.80
2014,06,17,04,02,10.80
2014,06,17,04,03,10.80
2014,06,17,04,04,10.80
2014,06,17,04,05,10.70
2014,06,17,04,06,10.70
2014,06,17,04,07,10.70
2014,06,17,04,08,10.60
2014,06,17,04,09,10.60
2014,06,17,04,10,10.60
2014,06,17,04,11,10.60
2014,06,17,04,12,10.60
2014,06,17,04,13,10.40
2014,06,17,04,14,10.40
2014,06,17,04,15,10.40
2014,06,17,04,16,10.40
2014,06,17,04,17,10.40
2014,06,17,04,18,10.40
2014,06,17,04,19,10.40
2014,06,17,04,20,10.40
2014,06,17,04,21,10.40
2014,06,17,04,22,10.40
2014,06,17,04,23,10.40
2014,06,17,04,24,10.40
2014,06,17,04,25,10.60
2014,06,17,04,26,10.60
2014,06,17,04,27,10.60
2014,06,17,04,28,10.60
2014,06,17,04,29,10.60
2014,06,17,04,30,10.60
2014,06,17,04,31,10.60
2014,06,17,04,32,10.70
2014,06,17,04,33,10.70
2014,06,17,04,34,10.70
2014,06,17,04,35,10.70
2014,06,17,04,36,10.70
2014,06,17,04,37,10.60
2014,06,17,04,38,10.60
2014,06,17,04,39,10.60
2014,06,17,04,40,10.60
2014,06,17,04,41,10.60
2014,06,17,04,42,10.40
2014,06,17,04,43,10.40
2014,06,17,04,44,10.30
2014,06,17,04,45,10.30
2014,06,17,04,46,10.30
2014,06,17,04,47,10.20
2014,06,17,04,48,10.20
2014,06,17,04,49,10.10
2014,06,17,04,50,10.10
2014,06,17,04,51,10.10
2014,06,17,04,52,10.10
2014,06,17,04,53,10.10
2014,06,17,04,54,10.10
2014,06,17,04,55,9.90
2014,06,17,04,56,9.90
2014,06,17,04,57,9.90
2014,06,17,04,58,9.90
2014,06,17,04,59,9.80
2014,06,17,05,00,9.80
2014,06,17,05,01,9.80
2014,06,17,05,02,9.70
2014,06,17,05,03,9.70
2014,06,17,05,04,9.70
2014,06,17,05,05,9.70
2014,06,17,05,06,9.60
2014,06,17,05,07,9.60
2014,06,17,05,08,9.60
2014,06,17,05,09,9.60
2014,06,17,05,10,9.50
2014,06,17,05,11,9.50
2014,06,17,05,12,9.50
2014,06,17,05,13,9.40
2014,06,17,05,14,9.40
2014,06,17,05,15,9.40
2014,06,17,05,16,9.40
2014,06,17,05,17,9.40
2014,06,17,05,18,9.40
2014,06,17,05,19,9.40
2014,06,17,05,20,9.40
2014,06,17,05,21,9.40
2014,06,17,05,22,9.40
2014,06,17,05,23,9.40
2014,06,17,05,24,9.40
2014,06,17,05,25,9.40
2014,06,17,05,26,9.30
2014,06,17,05,27,9.30
2014,06,17,05,28,9.30
2014,06,17,05,29,9.30
2014,06,17,05,30,9.30
2014,06,17,05,31,9.30
2014,06,17,05,32,9.30
2014,06,17,05,33,9.30
2014,06,17,05,34,9.30
2014,06,17,05,35,9.30
2014,06,17,05,36,9.30
2014,06,17,05,37,9.30
2014,06,17,05,38,9.30
2014,06,17,05,39,9.30
2014,06,17,05,40,9.20
2014,06,17,05,41,9.20
2014,06,17,05,42,9.20
2014,06,17,05,43,9.20
2014,06,17,05,44,9.20
2014,06,17,05,45,9.20
2014,06,17,05,46,9.20
2014,06,17,05,47,9.20
2014,06,17,05,48,9.20
2014,06,17,05,49,9.20
2014,06,17,05,50,9.20
2014,06,17,05,51,9.20
2014,06,17,05,52,9.20
2014,06,17,05,53,9.20
2014,06,17,05,54,9.20
2014,06,17,05,55,9.20
2014,06,17,05,56,9.20
2014,06,17,05,57,9.20
2014,06,17,05,58,9.20
2014,06,17,05,59,9.30
2014,06,17,06,00,9.30
2014,06,17,06,01,9.40
2014,06,17,06,02,9.40
2014,06,17,06,03,9.50
2014,06,17,06,04,9.50
2014,06,17,06,05,9.50
2014,06,17,06,06,9.60
2014,06,17,06,07,9.60
2014,06,17,06,08,9.60
2014,06,17,06,09,9.60
2014,06,17,06,10,9.70
2014,06,17,06,11,9.70
2014,06,17,06,12,9.70
2014,06,17,06,13,9.70
2014,06,17,06,14,9.70
2014,06,17,06,15,9.70
2014,06,17,06,16,9.70
2014,06,17,06,17,9.80
2014,06,17,06,18,9.80
2014,06,17,06,19,9.80
2014,06,17,06,20,9.90
2014,06,17,06,21,9.90
2014,06,17,06,22,9.90
2014,06,17,06,23,9.90
2014,06,17,06,24,9.90
2014,06,17,06,25,9.90
2014,06,17,06,26,10.10
2014,06,17,06,27,10.10
2014,06,17,06,28,10.10
2014,06,17,06,29,10.10
2014,06,17,06,30,10.20
2014,06,17,06,31,10.30
2014,06,17,06,32,10.30
2014,06,17,06,33,10.30
2014,06,17,06,34,10.30
2014,06,17,06,35,10.30
2014,06,17,06,36,10.30
2014,06,17,06,37,10.30
2014,06,17,06,38,10.30
2014,06,17,06,39,10.30
2014,06,17,06,40,10.30
2014,06,17,06,41,10.40
2014,06,17,06,42,10.40
2014,06,17,06,43,10.40
2014,06,17,06,44,10.40
2014,06,17,06,45,10.40
2014,06,17,06,46,10.40
2014,06,17,06,47,10.60
2014,06,17,06,48,10.60
2014,06,17,06,49,10.60
2014,06,17,06,50,10.60
2014,06,17,06,51,10.70
2014,06,17,06,52,10.80
2014,06,17,06,53,10.90
2014,06,17,06,54,10.90
2014,06,17,06,55,10.90
2014,06,17,06,56,10.90
2014,06,17,06,57,10.90
2014,06,17,06,58,10.90
2014,06,17,06,59,10.90
2014,06,17,07,00,10.90
2014,06,17,07,01,10.90
2014,06,17,07,02,11.10
2014,06,17,07,03,11.10
2014,06,17,07,04,11.10
2014,06,17,07,05,11.10
2014,06,17,07,06,11.10
2014,06,17,07,07,11.10
2014,06,17,07,08,11.10
2014,06,17,07,09,11.20
2014,06,17,07,10,11.30
2014,06,17,07,11,11.30
2014,06,17,07,12,11.40
2014,06,17,07,13,11.40
2014,06,17,07,14,11.40
2014,06,17,07,15,11.60
2014,06,17,07,16,11.60
2014,06,17,07,17,11.70
2014,06,17,07,18,11.80
2014,06,17,07,19,11.80
2014,06,17,07,20,11.90
2014,06,17,07,21,12.00
2014,06,17,07,22,12.20
2014,06,17,07,23,12.30
2014,06,17,07,24,12.30
2014,06,17,07,25,12.50
2014,06,17,07,26,12.60
2014,06,17,07,27,12.70
2014,06,17,07,28,12.80
2014,06,17,07,29,12.80
2014,06,17,07,30,12.90
2014,06,17,07,31,12.90
2014,06,17,07,32,12.90
2014,06,17,07,33,12.90
2014,06,17,07,34,13.00
2014,06,17,07,35,13.00
2014,06,17,07,36,13.00
2014,06,17,07,37,13.00
2014,06,17,07,38,13.00
2014,06,17,07,39,13.00
2014,06,17,07,40,13.00
2014,06,17,07,41,13.00
2014,06,17,07,42,13.00
2014,06,17,07,43,13.00
2014,06,17,07,44,13.00
2014,06,17,07,45,13.10
2014,06,17,07,46,13.20
2014,06,17,07,47,13.30
2014,06,17,07,48,13.30
2014,06,17,07,49,13.40
2014,06,17,07,50,13.50
2014,06,17,07,51,13.60
2014,06,17,07,52,13.70
2014,06,17,07,53,13.80
2014,06,17,07,54,13.90
2014,06,17,07,55,13.90
2014,06,17,07,56,13.90
2014,06,17,07,57,14.00
2014,06,17,07,58,14.00
2014,06,17,07,59,14.00
2014,06,17,08,00,14.00
2014,06,17,08,01,14.00
2014,06,17,08,02,14.00
2014,06,17,08,03,14.00
2014,06,17,08,04,14.00
2014,06,17,08,05,14.00
2014,06,17,08,06,14.00
2014,06,17,08,07,14.00
2014,06,17,08,08,14.00
2014,06,17,08,09,13.90
2014,06,17,08,10,13.90
2014,06,17,08,11,13.90
2014,06,17,08,12,13.90
2014,06,17,08,13,13.90
2014,06,17,08,14,13.90
2014,06,17,08,15,13.90
2014,06,17,08,16,13.90
2014,06,17,08,17,13.90
2014,06,17,08,18,13.90
2014,06,17,08,19,13.90
2014,06,17,08,20,14.00
2014,06,17,08,21,14.00
2014,06,17,08,22,14.10
2014,06,17,08,23,14.10
2014,06,17,08,24,14.20
2014,06,17,08,25,14.20
2014,06,17,08,26,14.20
2014,06,17,08,27,14.30
2014,06,17,08,28,14.30
2014,06,17,08,29,14.40
2014,06,17,08,30,14.50
2014,06,17,08,31,14.50
2014,06,17,08,32,14.60
2014,06,17,08,33,14.60
2014,06,17,08,34,14.70
2014,06,17,08,35,14.70
2014,06,17,08,36,14.80
2014,06,17,08,37,14.90
2014,06,17,08,38,14.90
2014,06,17,08,39,15.00
2014,06,17,08,40,15.10
2014,06,17,08,41,15.10
2014,06,17,08,42,15.10
2014,06,17,08,43,15.00
2014,06,17,08,44,14.90
2014,06,17,08,45,14.80
2014,06,17,08,46,14.80
2014,06,17,08,47,14.80
2014,06,17,08,48,14.80
2014,06,17,08,49,14.80
2014,06,17,08,50,14.70
2014,06,17,08,52,14.70
2014,06,17,08,53,14.60
2014,06,17,08,54,14.60
2014,06,17,08,55,14.70
2014,06,17,08,56,14.70
2014,06,17,08,57,14.80
2014,06,17,08,58,14.80
2014,06,17,08,59,14.80
2014,06,17,09,00,14.80
2014,06,17,09,01,14.90
2014,06,17,09,02,14.90
2014,06,17,09,04,15.00
2014,06,17,09,05,15.10
2014,06,17,09,06,15.10
2014,06,17,09,07,15.20
2014,06,17,09,08,15.30
2014,06,17,09,09,15.30
2014,06,17,09,11,15.50
2014,06,17,09,12,15.60
2014,06,17,09,13,15.70
2014,06,17,09,14,15.80
2014,06,17,09,15,15.80
2014,06,17,09,16,15.80
2014,06,17,09,17,15.80
2014,06,17,09,18,15.80
2014,06,17,09,19,15.80
2014,06,17,09,20,15.80
2014,06,17,09,21,15.80
2014,06,17,09,22,15.80
2014,06,17,09,23,15.80
2014,06,17,09,24,15.80
2014,06,17,09,25,15.80
2014,06,17,09,26,15.80
2014,06,17,09,27,15.80
2014,06,17,09,28,15.80
2014,06,17,09,29,15.90
2014,06,17,09,30,15.90
2014,06,17,09,31,16.10
2014,06,17,09,32,16.10
2014,06,17,09,33,16.10
2014,06,17,09,34,16.10
2014,06,17,09,35,16.10
2014,06,17,09,36,15.90
2014,06,17,09,37,15.90
2014,06,17,09,38,15.90
2014,06,17,09,39,15.80
2014,06,17,09,40,15.80
2014,06,17,09,41,15.80
2014,06,17,09,42,15.90
2014,06,17,09,43,15.90
2014,06,17,09,44,15.90
2014,06,17,09,45,16.10
2014,06,17,09,46,16.10
2014,06,17,09,47,16.10
2014,06,17,09,48,16.10
2014,06,17,09,49,16.10
2014,06,17,09,50,16.20
2014,06,17,09,51,16.20
2014,06,17,09,52,16.30
2014,06,17,09,53,16.30
2014,06,17,09,54,16.30
2014,06,17,09,55,16.40
2014,06,17,09,56,16.40
2014,06,17,09,57,16.40
2014,06,17,09,58,16.40
2014,06,17,09,59,16.60
2014,06,17,10,00,16.60
2014,06,17,10,02,16.70
2014,06,17,10,03,16.70
2014,06,17,10,04,16.70
2014,06,17,10,05,16.70
2014,06,17,10,06,16.70
2014,06,17,10,07,16.80
2014,06,17,10,08,16.90
2014,06,17,10,09,17.00
2014,06,17,10,10,17.10
2014,06,17,10,11,17.10
2014,06,17,10,12,17.10
2014,06,17,10,13,17.20
2014,06,17,10,14,17.30
2014,06,17,10,15,17.30
2014,06,17,10,16,17.30
2014,06,17,10,17,17.40
2014,06,17,10,18,17.50
2014,06,17,10,19,17.70
2014,06,17,10,20,17.70
2014,06,17,10,22,17.80
2014,06,17,10,23,17.80
2014,06,17,10,24,17.80
2014,06,17,10,25,17.80
2014,06,17,10,26,17.80
2014,06,17,10,27,17.80
2014,06,17,10,28,17.90
2014,06,17,10,29,17.90
2014,06,17,10,31,18.10
2014,06,17,10,33,18.10
2014,06,17,10,34,18.20
2014,06,17,10,35,18.20
2014,06,17,10,36,18.20
2014,06,17,10,37,18.30
2014,06,17,10,38,18.40
2014,06,17,10,39,18.60
2014,06,17,10,40,18.70
2014,06,17,10,41,18.80
2014,06,17,10,42,18.90
2014,06,17,10,43,18.90
2014,06,17,10,44,19.10
2014,06,17,10,45,19.20
2014,06,17,10,46,19.30
2014,06,17,10,47,19.30
2014,06,17,10,48,19.30
2014,06,17,10,49,19.20
2014,06,17,10,50,19.20
2014,06,17,10,51,19.10
2014,06,17,10,52,19.10
2014,06,17,10,53,19.10
2014,06,17,10,54,19.10
2014,06,17,10,55,19.10
2014,06,17,10,56,19.10
2014,06,17,10,57,19.20
2014,06,17,10,58,19.20
2014,06,17,10,59,19.20
2014,06,17,11,00,19.10
2014,06,17,11,02,19.10
2014,06,17,11,03,19.10
2014,06,17,11,04,19.10
2014,06,17,11,05,19.20
2014,06,17,11,06,19.30
2014,06,17,11,07,19.40
2014,06,17,11,08,19.50
2014,06,17,11,09,19.50
2014,06,17,11,10,19.60
2014,06,17,11,11,19.70
2014,06,17,11,12,19.90
2014,06,17,11,13,19.90
2014,06,17,11,14,20.10
2014,06,17,11,15,20.20
2014,06,17,11,16,20.30
2014,06,17,11,17,20.40
2014,06,17,11,18,20.40
2014,06,17,11,19,20.50
2014,06,17,11,20,20.50
2014,06,17,11,21,20.50
2014,06,17,11,22,20.60
2014,06,17,11,23,20.60
2014,06,17,11,24,20.60
2014,06,17,11,25,20.50
2014,06,17,11,26,20.40
2014,06,17,11,27,20.30
2014,06,17,11,28,20.20
2014,06,17,11,29,20.20
2014,06,17,11,30,20.30
2014,06,17,11,31,20.40
2014,06,17,11,32,20.50
2014,06,17,11,33,20.60
2014,06,17,11,34,20.80
2014,06,17,11,35,20.90
2014,06,17,11,36,20.90
2014,06,17,11,37,20.80
2014,06,17,11,38,20.80
2014,06,17,11,39,20.70
2014,06,17,11,40,20.60
2014,06,17,11,41,20.50
2014,06,17,11,42,20.50
2014,06,17,11,43,20.50
2014,06,17,11,44,20.50
2014,06,17,11,45,20.60
2014,06,17,11,46,20.60
2014,06,17,11,48,20.60
2014,06,17,11,49,20.60
2014,06,17,11,50,20.60
2014,06,17,11,51,20.30
2014,06,17,11,52,20.20
2014,06,17,11,53,20.20
2014,06,17,11,54,20.10
2014,06,17,11,55,19.90
2014,06,17,11,56,19.90
2014,06,17,11,57,19.90
2014,06,17,11,58,19.90
2014,06,17,12,00,20.20
2014,06,17,12,01,20.20
2014,06,17,12,02,20.40
2014,06,17,12,03,20.60
2014,06,17,12,04,20.70
2014,06,17,12,05,20.70
2014,06,17,12,06,20.80
2014,06,17,12,07,20.80
2014,06,17,12,08,20.80
2014,06,17,12,09,20.80
2014,06,17,12,10,20.80
2014,06,17,12,11,20.60
2014,06,17,12,12,20.60
2014,06,17,12,13,20.60
2014,06,17,12,14,20.70
2014,06,17,12,15,20.80
2014,06,17,12,16,20.80
2014,06,17,12,17,21.00
2014,06,17,12,18,21.10
2014,06,17,12,19,21.10
2014,06,17,12,20,21.10
2014,06,17,12,21,21.00
2014,06,17,12,22,20.90
2014,06,17,12,23,20.70
2014,06,17,12,24,20.50
2014,06,17,12,25,20.40
2014,06,17,12,26,20.50
2014,06,17,12,27,20.50
2014,06,17,12,28,20.60
2014,06,17,12,29,20.70
2014,06,17,12,30,20.90
2014,06,17,12,31,21.00
2014,06,17,12,32,21.20
2014,06,17,12,33,21.30
2014,06,17,12,34,21.60
2014,06,17,12,36,22.00
2014,06,17,12,37,22.20
2014,06,17,12,38,22.40
2014,06,17,12,39,22.60
2014,06,17,12,41,22.90
2014,06,17,12,42,23.10
2014,06,17,12,43,23.20
2014,06,17,12,44,23.20
2014,06,17,12,45,23.30
2014,06,17,12,46,23.30
2014,06,17,12,47,23.60
2014,06,17,12,48,23.70
2014,06,17,12,49,23.80
2014,06,17,12,50,23.90
2014,06,17,12,51,24.10
2014,06,17,12,53,24.10
2014,06,17,12,54,24.10
2014,06,17,12,55,24.20
2014,06,17,12,56,24.30
2014,06,17,12,57,24.40
2014,06,17,12,58,24.40
2014,06,17,12,59,24.40
2014,06,17,13,00,24.40
2014,06,17,13,01,24.10
2014,06,17,13,02,24.10
2014,06,17,13,03,23.90
2014,06,17,13,05,24.10
2014,06,17,13,06,24.10
2014,06,17,13,07,24.10
2014,06,17,13,08,24.10
2014,06,17,13,09,24.10
2014,06,17,13,10,24.10
2014,06,17,13,11,24.20
2014,06,17,13,12,24.30
2014,06,17,13,13,24.40
2014,06,17,13,14,24.40
2014,06,17,13,15,24.50
2014,06,17,13,16,24.60
2014,06,17,13,17,24.70
2014,06,17,13,18,24.70
2014,06,17,13,19,24.70
2014,06,17,13,20,24.80
2014,06,17,13,21,24.80
2014,06,17,13,22,24.90
2014,06,17,13,23,24.70
2014,06,17,13,24,24.40
2014,06,17,13,25,24.10
2014,06,17,13,26,24.10
2014,06,17,13,27,23.90
2014,06,17,13,28,23.80
2014,06,17,13,29,23.70
2014,06,17,13,30,23.70
2014,06,17,13,31,23.70
2014,06,17,13,32,23.70
2014,06,17,13,33,23.70
2014,06,17,13,34,23.70
2014,06,17,13,35,23.80
2014,06,17,13,36,23.90
2014,06,17,13,37,24.10
2014,06,17,13,38,24.10
2014,06,17,13,39,24.10
2014,06,17,13,40,24.10
2014,06,17,13,41,24.20
2014,06,17,13,42,24.30
2014,06,17,13,43,24.30
2014,06,17,13,44,24.40
2014,06,17,13,45,24.30
2014,06,17,13,46,24.30
2014,06,17,13,47,24.30
2014,06,17,13,48,24.30
2014,06,17,13,49,24.30
2014,06,17,13,50,24.10
2014,06,17,13,51,23.90
2014,06,17,13,52,23.80
2014,06,17,13,53,23.70
2014,06,17,13,54,23.70
2014,06,17,13,55,23.60
2014,06,17,13,56,23.40
2014,06,17,13,57,23.30
2014,06,17,13,58,23.30
2014,06,17,14,00,23.20
2014,06,17,14,01,23.10
2014,06,17,14,02,22.90
2014,06,17,14,03,22.90
2014,06,17,14,04,22.90
2014,06,17,14,05,22.90
2014,06,17,14,06,22.90
2014,06,17,14,07,22.90
2014,06,17,14,08,23.10
2014,06,17,14,09,23.20
2014,06,17,14,10,23.30
2014,06,17,14,11,23.40
2014,06,17,14,12,23.60
2014,06,17,14,13,23.70
2014,06,17,14,14,23.70
2014,06,17,14,15,23.70
2014,06,17,14,16,23.70
2014,06,17,14,17,23.70
2014,06,17,14,18,23.70
2014,06,17,14,19,23.70
2014,06,17,14,20,23.70
2014,06,17,14,21,23.70
2014,06,17,14,22,23.80
2014,06,17,14,23,23.80
2014,06,17,14,24,23.70
2014,06,17,14,25,23.70
2014,06,17,14,26,23.60
2014,06,17,14,27,23.60
2014,06,17,14,28,23.30
2014,06,17,14,29,23.30
2014,06,17,14,30,23.30
2014,06,17,14,31,23.30
2014,06,17,14,32,23.30
2014,06,17,14,33,23.20
2014,06,17,14,34,23.30
2014,06,17,14,35,23.30
2014,06,17,14,36,23.30
2014,06,17,14,37,23.10
2014,06,17,14,38,23.10
2014,06,17,14,39,22.90
2014,06,17,14,40,22.90
2014,06,17,14,41,22.90
2014,06,17,14,42,22.90
2014,06,17,14,43,22.90
2014,06,17,14,44,22.90
2014,06,17,14,45,22.90
2014,06,17,14,46,23.10
2014,06,17,14,47,23.10
2014,06,17,14,48,23.20
2014,06,17,14,49,23.30
2014,06,17,14,50,23.30
2014,06,17,14,51,23.30
2014,06,17,14,52,23.30
2014,06,17,14,53,23.30
2014,06,17,14,54,23.30
2014,06,17,14,55,23.30
2014,06,17,14,56,23.20
2014,06,17,14,57,23.10
2014,06,17,14,58,22.90
2014,06,17,14,59,22.90
2014,06,17,15,00,22.80
2014,06,17,15,01,22.80
2014,06,17,15,02,22.90
2014,06,17,15,03,22.90
2014,06,17,15,04,22.90
2014,06,17,15,05,22.90
2014,06,17,15,06,22.90
2014,06,17,15,07,22.90
2014,06,17,15,08,22.90
2014,06,17,15,09,23.10
2014,06,17,15,10,23.30
2014,06,17,15,11,23.30
2014,06,17,15,12,23.40
2014,06,17,15,13,23.40
2014,06,17,15,14,23.60
2014,06,17,15,15,23.60
2014,06,17,15,16,23.70
2014,06,17,15,17,23.70
2014,06,17,15,18,23.70
2014,06,17,15,19,23.70
2014,06,17,15,20,23.70
2014,06,17,15,21,23.70
2014,06,17,15,23,23.60
2014,06,17,15,24,23.60
2014,06,17,15,25,23.70
2014,06,17,15,26,23.70
2014,06,17,15,27,23.70
2014,06,17,15,28,23.70
2014,06,17,15,29,23.70
2014,06,17,15,30,23.70
2014,06,17,15,31,23.70
2014,06,17,15,32,23.80
2014,06,17,15,33,23.90
2014,06,17,15,34,24.10
2014,06,17,15,35,24.10
2014,06,17,15,36,24.10
2014,06,17,15,37,24.10
2014,06,17,15,38,24.10
2014,06,17,15,39,24.10
2014,06,17,15,40,23.90
2014,06,17,15,41,23.90
2014,06,17,15,42,23.80
2014,06,17,15,43,23.80
2014,06,17,15,44,23.90
2014,06,17,15,45,24.10
2014,06,17,15,46,24.20
2014,06,17,15,47,24.10
2014,06,17,15,48,24.10
2014,06,17,15,49,24.10
2014,06,17,15,50,24.10
2014,06,17,15,51,24.10
2014,06,17,15,52,24.10
2014,06,17,15,53,24.10
2014,06,17,15,54,24.10
2014,06,17,15,55,24.10
2014,06,17,15,56,24.10
2014,06,17,15,57,24.10
2014,06,17,15,58,24.10
2014,06,17,15,59,24.20
2014,06,17,16,00,24.20
2014,06,17,16,01,24.30
2014,06,17,16,02,24.30
2014,06,17,16,03,24.30
2014,06,17,16,04,24.30
2014,06,17,16,05,24.30
2014,06,17,16,06,24.30
2014,06,17,16,07,24.30
2014,06,17,16,08,24.30
2014,06,17,16,09,24.30
2014,06,17,16,10,24.30
2014,06,17,16,11,24.30
2014,06,17,16,12,24.40
2014,06,17,16,13,24.30
2014,06,17,16,14,24.30
2014,06,17,16,15,24.10
2014,06,17,16,16,24.10
2014,06,17,16,17,24.10
2014,06,17,16,18,24.10
2014,06,17,16,19,24.10
2014,06,17,16,20,24.10
2014,06,17,16,21,24.10
2014,06,17,16,22,24.20
2014,06,17,16,23,24.30
2014,06,17,16,24,24.30
2014,06,17,16,25,24.20
2014,06,17,16,26,24.10
2014,06,17,16,27,24.10
2014,06,17,16,28,24.10
2014,06,17,16,29,24.10
2014,06,17,16,30,24.10
2014,06,17,16,31,23.90
2014,06,17,16,32,23.90
2014,06,17,16,33,23.90
2014,06,17,16,34,23.90
2014,06,17,16,35,23.90
2014,06,17,16,36,23.90
2014,06,17,16,37,23.90
2014,06,17,16,38,24.10
2014,06,17,16,39,24.10
2014,06,17,16,40,24.10
2014,06,17,16,41,24.10
2014,06,17,16,42,24.10
2014,06,17,16,43,24.20
2014,06,17,16,44,24.20
2014,06,17,16,45,24.20
2014,06,17,16,46,24.20
2014,06,17,16,47,24.30
2014,06,17,16,48,24.30
2014,06,17,16,49,24.40
2014,06,17,16,50,24.40
2014,06,17,16,51,24.30
2014,06,17,16,52,24.20
2014,06,17,16,54,24.20
2014,06,17,16,55,24.30
2014,06,17,16,56,24.30
2014,06,17,16,57,24.30
2014,06,17,16,58,24.40
2014,06,17,16,59,24.30
2014,06,17,17,00,24.10
2014,06,17,17,01,24.10
2014,06,17,17,02,23.90
2014,06,17,17,03,23.80
2014,06,17,17,04,23.70
2014,06,17,17,05,23.40
2014,06,17,17,06,23.30
2014,06,17,17,07,23.30
2014,06,17,17,08,23.30
2014,06,17,17,09,23.40
2014,06,17,17,10,23.60
2014,06,17,17,11,23.70
2014,06,17,17,12,23.70
2014,06,17,17,13,23.70
2014,06,17,17,14,23.90
2014,06,17,17,15,24.10
2014,06,17,17,16,24.10
2014,06,17,17,17,24.10
2014,06,17,17,18,24.10
2014,06,17,17,19,24.20
2014,06,17,17,20,24.20
2014,06,17,17,21,24.20
2014,06,17,17,22,24.20
2014,06,17,17,23,24.10
2014,06,17,17,24,24.10
2014,06,17,17,25,24.10
2014,06,17,17,26,24.10
2014,06,17,17,27,24.20
2014,06,17,17,28,24.10
2014,06,17,17,29,24.10
2014,06,17,17,30,23.90
2014,06,17,17,31,23.80
2014,06,17,17,32,23.80
2014,06,17,17,33,23.80
2014,06,17,17,34,23.80
2014,06,17,17,35,23.80
2014,06,17,17,36,23.80
2014,06,17,17,37,23.80
2014,06,17,17,38,23.80
2014,06,17,17,39,23.70
2014,06,17,17,40,23.70
2014,06,17,17,41,23.70